Location: Newark
(52.4787°S, 179.0532°W)
Time: 21:52:22
(UTC+00:00)

Transit 2A Rocket - Pass Details

Date: 24 November 2019
Orbit: 594 x 909 km, 66.7° (Epoch: 15 December)

Event Time Altitude Azimuth Distance (km) Brightness Sun altitude
Rises 21:33:48 0° 304° (NW) 3,388 8.2 49.6°
Reaches altitude 10° 21:36:15 10° 299° (WNW) 2,498 7.6 49.9°
Maximum altitude 21:42:00 55° 222° (SW) 1,081 6.1 50.5°
Drops below altitude 10° 21:48:02 10° 144° (SE) 2,626 7.8 51.2°
Sets 21:50:41 0° 139° (SE) 3,574 8.4 51.5°
